Flag for Russia Weather past 2 weeks in Yekaterinburg, Russia

Now
48 °F

Sunny.


Feels Like: 45 °F
Forecast: 29 / 48 °F
Wind: 8 mph from Southwest

Location: Ekaterinburg

Current Time: Apr 19, 2015 at 1:35:36 PM

Latest Report: Apr 19, 2015 at 1:00 PM


Visibility: 10 mi

Pressure: 29.62 "Hg

Humidity: 43%

Dew point: 27 °F

Location of YekaterinburgLocation

Historic Weather in Yekaterinburg — Graph

°F

Yekaterinburg temperature yesterday

Maximum temperature yesterday: 45 °F (at 11:30 AM)
Minimum temperature yesterday: 34 °F (at 5:00 AM)
Average temperature yesterday: 40 °F

Past Weeks' High & Low Weather Summary

 TemperatureHumidityPressure
High61 °F (Apr 16, 2:30 PM)100% (Apr 6, 11:00 PM)30.39 "Hg (Apr 6, 11:00 PM)
Low23 °F (Apr 5, 7:00 AM)25% (Apr 16, 3:00 PM)29.42 "Hg (Apr 18, 5:00 AM)
Average39 °F75%29.87 "Hg
* Reported Apr 4 12:00 Noon — Apr 19 12:30 PM, Yekaterinburg, Weather by CustomWeather, © 2015

Note: Actual official high and low records may vary slightly from our data, if they occured in-between our weather recording intervals... More about our weather records

Advertising

Yekaterinburg weather history for previous 24 hours

 ConditionsComfort  
Time TempWeatherWind HumidityBarometerVisibility
12:30 PM
Sun, Apr 19
45 °FSunny.13 mph46%29.62 "Hg10 mi
12:00 PM45 °FSunny.10 mph46%29.62 "Hg10 mi
11:30 AM45 °FPartly sunny.13 mph49%29.62 "HgN/A
11:00 AM43 °FPartly sunny.15 mph57%29.62 "HgN/A
10:30 AM43 °FPartly sunny.13 mph57%29.62 "HgN/A
10:00 AM43 °FBroken clouds.10 mph66%29.62 "HgN/A
9:30 AM41 °FBroken clouds.10 mph70%29.62 "HgN/A
9:00 AM39 °FBroken clouds.8 mph81%29.62 "HgN/A
8:30 AM37 °FScattered clouds.10 mph87%29.62 "HgN/A
8:00 AM36 °FSunny.10 mph87%29.62 "Hg10 mi
7:30 AM34 °FSunny.10 mph93%29.62 "Hg10 mi
7:00 AM34 °FPartly sunny.8 mph87%29.62 "HgN/A
6:30 AM32 °FPassing clouds.8 mph93%29.62 "HgN/A
6:00 AM32 °FPartly cloudy.10 mph93%29.62 "HgN/A
5:30 AM32 °FPartly cloudy.8 mph93%29.59 "HgN/A
5:00 AM30 °FPartly cloudy.8 mph93%29.59 "HgN/A
4:30 AM32 °FPartly cloudy.6 mph87%29.59 "HgN/A
4:00 AM32 °FPartly cloudy.8 mph93%29.59 "HgN/A
3:30 AM30 °FPassing clouds.8 mph93%29.59 "HgN/A
3:00 AM30 °FPassing clouds.6 mph86%29.56 "HgN/A
2:30 AM30 °FPassing clouds.6 mph86%29.56 "HgN/A
2:00 AM30 °FPassing clouds.8 mph86%29.56 "HgN/A
1:30 AM32 °FClear.10 mph80%29.56 "Hg10 mi
1:00 AM32 °FClear.6 mph80%29.56 "Hg10 mi
12:30 AM32 °FPassing clouds.3 mph80%29.56 "HgN/A
12:00 AM32 °FPassing clouds.3 mph80%29.53 "HgN/A
11:30 PM
Sat, Apr 18
34 °FPassing clouds.8 mph81%29.53 "HgN/A
11:00 PM36 °FPassing clouds.8 mph75%29.53 "HgN/A
10:30 PM37 °FPassing clouds.10 mph75%29.53 "HgN/A
10:00 PM36 °FPartly cloudy.6 mph81%29.53 "HgN/A
9:30 PM34 °FPartly cloudy.6 mph81%29.53 "HgN/A
9:00 PM36 °FSunny.8 mph81%29.50 "Hg10 mi
8:30 PM37 °FSunny.8 mph75%29.50 "Hg10 mi
8:00 PM39 °FPartly sunny.10 mph75%29.50 "HgN/A
7:30 PM39 °FPartly sunny.13 mph75%29.47 "HgN/A
7:00 PM41 °FPartly sunny.17 mph76%29.47 "HgN/A
6:30 PM41 °FPartly sunny.20 mph76%29.47 "HgN/A
6:00 PM43 °FPartly sunny.17 mph71%29.47 "HgN/A
5:30 PM43 °FPartly sunny.20 mph71%29.45 "HgN/A
5:00 PM43 °FPartly sunny.15 mph71%29.45 "HgN/A
4:30 PM45 °FPartly sunny.17 mph71%29.45 "HgN/A
4:00 PM41 °FMostly cloudy.15 mph81%29.45 "HgN/A
3:30 PM45 °FMostly cloudy.17 mph66%29.45 "HgN/A
3:00 PM45 °FOvercast.20 mph61%29.45 "HgN/A
2:30 PM45 °FMostly cloudy.17 mph57%29.42 "HgN/A
2:00 PM45 °FSunny.15 mph53%29.42 "Hg10 mi
1:30 PM45 °FSunny.15 mph53%29.42 "Hg10 mi
1:00 PM45 °FOvercast.17 mph57%29.42 "HgN/A
Weather by CustomWeather, © 2015

See weather overviewHow to use our weather pages